Location: Perryvale
(54.4667°N, 113.3833°W)
Time: 23:32:10
(UTC+00:00)

SR - Pass Details

Date: 27 May 2024
Orbit: 580 x 858 km, 66.7° (Epoch: 13 June)

Event Time Altitude Azimuth Distance (km) Brightness Sun altitude
Rises 08:11:51 0° 317° (NW) 2,905 ? -13.6°
Reaches altitude 10° 08:14:10 10° 317° (NW) 1,965 ? -13.6°
Maximum altitude 08:18:33 80° 232° (SW) 605 ? -13.4°
Enters shadow 08:22:44 10° 145° (SE) 1,877 ? -13.3°
